Flag for Germany Weather past 2 weeks in Georgsmarienhütte, Lower Saxony, Germany

Now
52 °F

Partly sunny.


Feels Like: 47 °F
Forecast: 42 / 67 °F
Wind: 15 mph from Southwest

Location: Muenster / Osnabrueck

Current Time: May 30, 2015 at 9:38:02 AM

Latest Report: May 30, 2015 at 8:50 AM


Visibility: N/A

Pressure: 29.83 "Hg

Humidity: 77%

Dew point: 45 °F

Location of GeorgsmarienhütteLocation

Historic Weather in Georgsmarienhütte — Graph

°F

Georgsmarienhütte temperature yesterday

Maximum temperature yesterday: 63 °F (at 3:50 PM)
Minimum temperature yesterday: 41 °F (at 3:20 AM)
Average temperature yesterday: 54 °F

Past Weeks' High & Low Weather Summary

 TemperatureHumidityPressure
High68 °F (May 22, 4:50 PM)100% (May 16, 4:50 AM)30.33 "Hg (May 16, 4:50 AM)
Low37 °F (May 16, 5:20 AM)38% (May 22, 4:50 PM)29.59 "Hg (May 18, 7:20 PM)
Average54 °F71%30.04 "Hg
* Reported May 15 8:20 AM — May 30 8:20 AM, Georgsmarienhütte, Weather by CustomWeather, © 2015

Note: Actual official high and low records may vary slightly from our data, if they occured in-between our weather recording intervals... More about our weather records

Advertising

Georgsmarienhütte weather history for previous 24 hours

 ConditionsComfort  
Time TempWeatherWind HumidityBarometerVisibility
8:20 AM
Sat, May 30
52 °FPassing clouds.12 mph82%29.83 "HgN/A
7:50 AM50 °FPassing clouds.12 mph82%29.83 "HgN/A
7:20 AM48 °FScattered clouds.9 mph94%29.83 "Hg4 mi
6:50 AM48 °FPartly sunny.9 mph94%29.80 "Hg4 mi
6:20 AM46 °FPartly sunny.8 mph93%29.80 "Hg4 mi
5:20 AM46 °FPassing clouds.8 mph93%29.80 "Hg5 mi
4:50 AM46 °FPassing clouds.9 mph93%29.77 "HgN/A
4:20 AM46 °FPassing clouds.9 mph93%29.77 "HgN/A
3:50 AM46 °FPassing clouds.12 mph93%29.77 "HgN/A
3:20 AM48 °FPassing clouds.12 mph87%29.77 "HgN/A
2:50 AM48 °FPartly cloudy.6 mph94%29.74 "HgN/A
2:20 AM48 °FSprinkles. Partly cloudy.8 mph94%29.74 "HgN/A
1:50 AM48 °FPartly cloudy.9 mph94%29.74 "HgN/A
1:20 AM48 °FSprinkles. Partly cloudy.10 mph94%29.74 "HgN/A
12:50 AM48 °FOvercast.13 mph87%29.74 "HgN/A
12:20 AM48 °FOvercast.12 mph87%29.74 "HgN/A
11:50 PM
Fri, May 29
48 °FMostly cloudy.12 mph94%29.74 "HgN/A
11:20 PM48 °FRain. Mostly cloudy.14 mph94%29.74 "HgN/A
10:20 PM52 °FLight rain. Mostly cloudy.15 mph77%29.74 "HgN/A
9:50 PM52 °FLight rain. Mostly cloudy.23 mph77%29.74 "HgN/A
9:20 PM59 °FLight rain. Partly sunny.14 mph55%29.71 "HgN/A
8:50 PM59 °FPartly sunny.14 mph55%29.71 "HgN/A
8:20 PM59 °FPartly sunny.15 mph51%29.71 "HgN/A
7:50 PM61 °FPartly sunny.16 mph48%29.71 "HgN/A
7:20 PM61 °FPartly sunny.15 mph45%29.71 "HgN/A
6:50 PM61 °FBroken clouds.14 mph45%29.71 "HgN/A
6:20 PM61 °FPartly sunny.13 mph48%29.71 "HgN/A
5:50 PM61 °FPartly sunny.17 mph45%29.71 "HgN/A
5:20 PM63 °FPartly sunny.13 mph45%29.71 "HgN/A
4:50 PM63 °FPartly sunny.15 mph45%29.74 "HgN/A
4:20 PM63 °FPartly sunny.15 mph42%29.74 "HgN/A
3:50 PM63 °FPartly sunny.16 mph42%29.74 "HgN/A
3:20 PM61 °FPartly sunny.16 mph48%29.77 "HgN/A
2:50 PM61 °FBroken clouds.15 mph48%29.77 "HgN/A
2:20 PM59 °FBroken clouds.10 mph55%29.77 "HgN/A
1:50 PM59 °FBroken clouds.14 mph55%29.77 "HgN/A
1:20 PM61 °FPartly sunny.13 mph52%29.80 "HgN/A
12:50 PM59 °FPartly sunny.10 mph63%29.80 "HgN/A
12:20 PM59 °FPartly sunny.13 mph59%29.80 "HgN/A
11:50 AM57 °FPartly sunny.12 mph67%29.83 "HgN/A
11:20 AM57 °FBroken clouds.13 mph67%29.83 "HgN/A
10:50 AM59 °FPartly sunny.10 mph63%29.83 "HgN/A
10:20 AM57 °FPartly sunny.9 mph72%29.83 "HgN/A
9:50 AM57 °FPassing clouds.7 mph77%29.86 "HgN/A
9:20 AM54 °FSunny.7 mph88%29.86 "Hg10 mi
Weather by CustomWeather, © 2015

See weather overviewHow to use our weather pages